Terminal Aerodrome Forecast
Issued by NWS St Louis, MO

Home | Current Version | Previous Version | Text Only | Print | Product List | Glossary On
Versions: 1 2 3 4 5 6 7 8 9 10 11 12 13 14 15 16 17 18 19 20 21 22
000
FTUS43 KLSX 251006 AAB
TAFCOU
TAF AMD
KCOU 251006Z 2510/2606 17005KT P6SM FEW040 OVC250
     FM251100 17005KT P6SM VCTS SCT040CB SCT100
      TEMPO 2511/2513 30015G25KT 2SM -TSRA BR BKN040CB
     FM251500 25005KT P6SM SCT040 BKN250
     FM260000 11005KT P6SM OVC250=

USA.gov is the U.S. government's official web portal to all federal, state and local government web resources and services.